QPF
0.19 0.20 0.22 0.24 0.18 0.12 0.09 0.05 0.01 0.00 0.00 0.00 0.00 0.01 0.01 0.01 0.01 0.01 0.01 0.01 0.00 0.00 0.00 0.01 0.02 0.02 0.02 0.04 0.03 0.01 0.00 0.00 0.00 0.00 0.01 0.01 0.01 0.01 0.00 0.00 0.00 0.01 0.02
0.20 0.23 0.29 0.33 0.26 0.21 0.16 0.08 0.02 0.01 0.01 0.01 0.01 0.02 0.03 0.04 0.05 0.06 0.05 0.03 0.02 0.01 0.01 0.01 0.02 0.01 0.02 0.06 0.05 0.01 0.01 0.00 0.00 0.00 0.01 0.01 0.01 0.01 0.00 0.00 0.00 0.00 0.01
0.12 0.18 0.27 0.37 0.35 0.31 0.21 0.11 0.05 0.03 0.02 0.02 0.03 0.02 0.02 0.04 0.07 0.10 0.09 0.08 0.07 0.05 0.03 0.03 0.04 0.03 0.02 0.03 0.05 0.03 0.03 0.02 0.01 0.00 0.00 0.01 0.02 0.02 0.00 0.00 0.00 0.00 0.00
0.11 0.16 0.23 0.36 0.42 0.35 0.22 0.14 0.10 0.11 0.13 0.13 0.08 0.03 0.03 0.03 0.04 0.05 0.05 0.07 0.10 0.12 0.10 0.06 0.04 0.04 0.02 0.02 0.05 0.06 0.09 0.06 0.02 0.02 0.01 0.01 0.01 0.01 0.00 0.00 0.00 0.00 0.00
0.14 0.21 0.28 0.38 0.41 0.34 0.31 0.34 0.34 0.33 0.26 0.15 0.05 0.01 0.01 0.02 0.02 0.02 0.03 0.08 0.14 0.13 0.10 0.06 0.06 0.06 0.05 0.04 0.04 0.09 0.17 0.11 0.05 0.03 0.01 0.01 0.01 0.00 0.00 0.00 0.00 0.00 0.00
0.28 0.33 0.37 0.42 0.41 0.40 0.45 0.47 0.40 0.31 0.17 0.07 0.02 0.00 0.01 0.01 0.02 0.03 0.04 0.07 0.09 0.07 0.07 0.08 0.07 0.06 0.05 0.04 0.04 0.09 0.17 0.12 0.07 0.04 0.03 0.01 0.00 0.01 0.00 0.00 0.00 0.00 0.00
0.48 0.48 0.46 0.44 0.42 0.42 0.43 0.37 0.27 0.14 0.06 0.02 0.01 0.00 0.00 0.00 0.01 0.01 0.03 0.03 0.04 0.05 0.07 0.07 0.03 0.02 0.02 0.03 0.04 0.06 0.13 0.12 0.07 0.06 0.05 0.02 0.01 0.01 0.01 0.00 0.00 0.00 0.00
0.76 0.83 0.76 0.63 0.52 0.42 0.33 0.24 0.16 0.07 0.03 0.02 0.01 0.00 0.00 0.00 0.00 0.00 0.01 0.01 0.01 0.01 0.01 0.01 0.00 0.00 0.00 0.02 0.05 0.06 0.10 0.14 0.15 0.12 0.07 0.03 0.01 0.01 0.02 0.01 0.01 0.00 0.01
0.50 0.69 0.69 0.59 0.47 0.35 0.27 0.19 0.13 0.06 0.03 0.01 0.00 0.00 0.00 0.00 0.00 0.00 0.00 0.00 0.00 0.00 0.00 0.00 0.00 0.01 0.01 0.02 0.05 0.08 0.12 0.16 0.18 0.18 0.12 0.06 0.04 0.03 0.04 0.04 0.04 0.03 0.02
0.31 0.30 0.33 0.34 0.33 0.30 0.22 0.14 0.08 0.04 0.03 0.01 0.01 0.00 0.00 0.00 0.00 0.00 0.00 0.00 0.00 0.00 0.00 0.00 0.00 0.00 0.00 0.01 0.04 0.08 0.12 0.12 0.13 0.14 0.16 0.13 0.07 0.06 0.05 0.06 0.08 0.09 0.12
0.15 0.14 0.12 0.14 0.17 0.19 0.16 0.10 0.06 0.04 0.02 0.01 0.00 0.00 0.00 0.00 0.00 0.00 0.00 0.00 0.00 0.00 0.00 0.00 0.00 0.00 0.00 0.00 0.01 0.03 0.07 0.11 0.12 0.12 0.16 0.18 0.11 0.07 0.05 0.04 0.06 0.12 0.20
0.04 0.03 0.03 0.05 0.07 0.08 0.07 0.06 0.04 0.02 0.01 0.00 0.00 0.00 0.00 0.00 0.00 0.00 0.00 0.00 0.00 0.00 0.00 0.00 0.00 0.00 0.00 0.01 0.01 0.01 0.03 0.09 0.14 0.17 0.19 0.19 0.15 0.09 0.05 0.04 0.04 0.12 0.23
0.00 0.00 0.01 0.01 0.02 0.03 0.04 0.03 0.02 0.01 0.00 0.00 0.00 0.00 0.00 0.00 0.00 0.00 0.00 0.00 0.00 0.00 0.00 0.00 0.00 0.00 0.00 0.00 0.00 0.00 0.01 0.04 0.08 0.13 0.17 0.18 0.15 0.11 0.07 0.04 0.04 0.10 0.21
0.00 0.00 0.00 0.00 0.01 0.02 0.03 0.04 0.04 0.02 0.01 0.00 0.00 0.00 0.00 0.00 0.00 0.00 0.00 0.00 0.00 0.00 0.00 0.00 0.00 0.00 0.00 0.00 0.00 0.00 0.01 0.01 0.02 0.04 0.06 0.10 0.12 0.09 0.05 0.03 0.03 0.05 0.13
0.00 0.00 0.00 0.00 0.00 0.01 0.02 0.04 0.06 0.04 0.02 0.01 0.01 0.01 0.00 0.00 0.00 0.00 0.00 0.00 0.00 0.00 0.00 0.00 0.00 0.00 0.00 0.00 0.00 0.00 0.00 0.00 0.00 0.01 0.01 0.01 0.02 0.02 0.01 0.01 0.01 0.02 0.04
0.00 0.00 0.00 0.00 0.00 0.00 0.01 0.03 0.04 0.03 0.02 0.02 0.01 0.01 0.01 0.01 0.01 0.00 0.00 0.00 0.00 0.00 0.00 0.00 0.00 0.00 0.00 0.00 0.00 0.00 0.00 0.00 0.00 0.00 0.00 0.00 0.00 0.00 0.00 0.00 0.00 0.00 0.01
0.00 0.00 0.00 0.00 0.00 0.00 0.01 0.02 0.03 0.03 0.02 0.02 0.02 0.02 0.02 0.01 0.01 0.00 0.00 0.00 0.00 0.00 0.00 0.00 0.00 0.00 0.00 0.00 0.00 0.00 0.00 0.00 0.00 0.00 0.00 0.00 0.00 0.00 0.00 0.00 0.00 0.00 0.00
0.00 0.00 0.00 0.01 0.01 0.01 0.01 0.02 0.02 0.03 0.04 0.04 0.06 0.07 0.05 0.03 0.01 0.01 0.00 0.01 0.01 0.01 0.00 0.00 0.00 0.00 0.00 0.00 0.00 0.00 0.00 0.00 0.00 0.00 0.00 0.00 0.00 0.00 0.00 0.00 0.00 0.00 0.00
0.01 0.01 0.01 0.02 0.02 0.02 0.02 0.02 0.02 0.04 0.07 0.07 0.08 0.09 0.08 0.05 0.02 0.01 0.00 0.00 0.01 0.01 0.01 0.00 0.00 0.00 0.00 0.00 0.00 0.00 0.00 0.00 0.00 0.00 0.00 0.00 0.00 0.00 0.00 0.00 0.00 0.00 0.00
0.03 0.06 0.06 0.06 0.06 0.05 0.04 0.04 0.05 0.06 0.09 0.10 0.09 0.07 0.07 0.07 0.04 0.01 0.00 0.00 0.00 0.00 0.01 0.00 0.00 0.00 0.00 0.00 0.00 0.00 0.00 0.00 0.00 0.00 0.00 0.00 0.00 0.00 0.00 0.00 0.00 0.00 0.00
0.02 0.07 0.10 0.12 0.13 0.14 0.13 0.12 0.10 0.09 0.09 0.07 0.06 0.07 0.06 0.05 0.03 0.02 0.00 0.00 0.00 0.00 0.00 0.00 0.00 0.00 0.00 0.00 0.00 0.00 0.00 0.00 0.00 0.00 0.00 0.00 0.00 0.00 0.00 0.00 0.00 0.00 0.00
0.02 0.04 0.09 0.13 0.19 0.22 0.23 0.22 0.18 0.13 0.11 0.08 0.06 0.06 0.07 0.07 0.06 0.05 0.02 0.00 0.00 0.00 0.00 0.00 0.00 0.00 0.00 0.00 0.00 0.00 0.00 0.00 0.00 0.00 0.00 0.00 0.00 0.00 0.00 0.00 0.00 0.00 0.00
0.02 0.03 0.04 0.07 0.11 0.15 0.17 0.21 0.19 0.15 0.14 0.12 0.09 0.06 0.06 0.07 0.06 0.06 0.05 0.03 0.02 0.01 0.01 0.00 0.00 0.00 0.00 0.00 0.00 0.00 0.00 0.00 0.00 0.00 0.00 0.00 0.00 0.00 0.00 0.00 0.00 0.00 0.00
0.02 0.01 0.01 0.01 0.01 0.02 0.03 0.05 0.08 0.08 0.09 0.10 0.10 0.09 0.07 0.07 0.06 0.06 0.05 0.06 0.06 0.04 0.04 0.03 0.01 0.01 0.01 0.01 0.00 0.00 0.00 0.00 0.00 0.00 0.00 0.00 0.00 0.00 0.00 0.00 0.00 0.00 0.00
0.01 0.00 0.00 0.00 0.00 0.00 0.01 0.01 0.02 0.03 0.04 0.07 0.10 0.10 0.09 0.08 0.08 0.06 0.04 0.04 0.04 0.06 0.07 0.05 0.02 0.01 0.01 0.01 0.00 0.00 0.00 0.00 0.00 0.00 0.00 0.00 0.00 0.00 0.00 0.00 0.00 0.00 0.00
0.00 0.00 0.00 0.00 0.00 0.00 0.00 0.00 0.01 0.02 0.03 0.05 0.05 0.06 0.06 0.05 0.07 0.08 0.07 0.04 0.02 0.02 0.02 0.02 0.01 0.01 0.00 0.00 0.00 0.00 0.00 0.00 0.00 0.00 0.00 0.00 0.00 0.00 0.00 0.00 0.00 0.00 0.00
MSLP
1010.87 1010.90 1011.02 1011.22 1011.49 1011.78 1012.09 1012.40 1012.70 1012.97 1013.23 1013.47 1013.69 1013.89 1014.07 1014.21 1014.32 1014.39 1014.44 1014.48 1014.52 1014.59 1014.69 1014.83 1015.00 1015.20 1015.40 1015.60 1015.77 1015.92 1016.03 1016.12 1016.18 1016.22 1016.23 1016.20 1016.10 1015.93 1015.68 1015.33 1014.91 1014.44 1013.97
1010.57 1010.67 1010.87 1011.14 1011.44 1011.75 1012.06 1012.36 1012.65 1012.93 1013.21 1013.47 1013.73 1013.95 1014.14 1014.27 1014.35 1014.39 1014.39 1014.38 1014.37 1014.40 1014.48 1014.62 1014.80 1015.01 1015.24 1015.45 1015.65 1015.81 1015.94 1016.05 1016.13 1016.20 1016.25 1016.26 1016.22 1016.10 1015.89 1015.58 1015.17 1014.71 1014.22
1010.28 1010.45 1010.72 1011.05 1011.39 1011.74 1012.07 1012.38 1012.68 1012.97 1013.26 1013.54 1013.82 1014.06 1014.25 1014.38 1014.44 1014.44 1014.40 1014.34 1014.29 1014.29 1014.34 1014.45 1014.61 1014.82 1015.03 1015.24 1015.43 1015.59 1015.73 1015.85 1015.96 1016.07 1016.17 1016.25 1016.28 1016.24 1016.10 1015.86 1015.52 1015.10 1014.64
1010.11 1010.32 1010.64 1011.02 1011.41 1011.79 1012.14 1012.46 1012.77 1013.07 1013.37 1013.67 1013.95 1014.20 1014.39 1014.51 1014.56 1014.53 1014.46 1014.38 1014.29 1014.25 1014.27 1014.34 1014.47 1014.64 1014.82 1014.99 1015.15 1015.29 1015.41 1015.53 1015.67 1015.81 1015.97 1016.12 1016.24 1016.30 1016.27 1016.13 1015.89 1015.55 1015.15
1010.14 1010.37 1010.71 1011.12 1011.54 1011.94 1012.31 1012.64 1012.95 1013.25 1013.54 1013.84 1014.12 1014.36 1014.55 1014.66 1014.70 1014.67 1014.59 1014.48 1014.38 1014.30 1014.28 1014.31 1014.39 1014.50 1014.62 1014.73 1014.84 1014.93 1015.02 1015.13 1015.27 1015.45 1015.66 1015.88 1016.09 1016.25 1016.34 1016.31 1016.18 1015.95 1015.64
1010.45 1010.66 1011.01 1011.43 1011.85 1012.26 1012.62 1012.94 1013.23 1013.51 1013.78 1014.05 1014.31 1014.54 1014.72 1014.83 1014.86 1014.83 1014.75 1014.64 1014.52 1014.43 1014.37 1014.36 1014.37 1014.41 1014.45 1014.49 1014.52 1014.55 1014.60 1014.68 1014.82 1015.00 1015.25 1015.52 1015.81 1016.06 1016.25 1016.34 1016.32 1016.21 1016.01
1011.04 1011.24 1011.57 1011.96 1012.37 1012.75 1013.08 1013.36 1013.62 1013.85 1014.08 1014.32 1014.54 1014.74 1014.90 1015.00 1015.04 1015.02 1014.94 1014.84 1014.72 1014.62 1014.53 1014.47 1014.42 1014.38 1014.34 1014.29 1014.24 1014.19 1014.18 1014.22 1014.33 1014.51 1014.76 1015.07 1015.40 1015.71 1015.98 1016.17 1016.26 1016.26 1016.17
1011.90 1012.06 1012.36 1012.72 1013.08 1013.40 1013.68 1013.91 1014.10 1014.27 1014.45 1014.62 1014.80 1014.96 1015.10 1015.19 1015.22 1015.21 1015.15 1015.06 1014.95 1014.84 1014.73 1014.62 1014.51 1014.40 1014.27 1014.14 1014.00 1013.89 1013.81 1013.79 1013.86 1014.01 1014.25 1014.55 1014.90 1015.25 1015.56 1015.82 1015.99 1016.07 1016.08
1012.93 1013.07 1013.33 1013.63 1013.92 1014.17 1014.37 1014.52 1014.64 1014.74 1014.85 1014.97 1015.09 1015.21 1015.31 1015.38 1015.42 1015.41 1015.37 1015.29 1015.19 1015.08 1014.94 1014.80 1014.64 1014.46 1014.26 1014.05 1013.85 1013.66 1013.52 1013.45 1013.46 1013.57 1013.77 1014.05 1014.37 1014.72 1015.05 1015.33 1015.55 1015.71 1015.79
1014.04 1014.16 1014.37 1014.59 1014.80 1014.96 1015.08 1015.15 1015.19 1015.22 1015.26 1015.32 1015.39 1015.46 1015.54 1015.59 1015.62 1015.62 1015.58 1015.52 1015.42 1015.30 1015.16 1014.99 1014.79 1014.57 1014.32 1014.05 1013.79 1013.55 1013.35 1013.23 1013.20 1013.26 1013.40 1013.63 1013.91 1014.22 1014.53 1014.82 1015.06 1015.25 1015.39
1015.11 1015.22 1015.36 1015.50 1015.61 1015.69 1015.71 1015.71 1015.68 1015.66 1015.65 1015.66 1015.68 1015.72 1015.77 1015.80 1015.82 1015.81 1015.78 1015.72 1015.63 1015.51 1015.37 1015.19 1014.97 1014.72 1014.44 1014.15 1013.85 1013.58 1013.36 1013.20 1013.12 1013.13 1013.22 1013.39 1013.61 1013.87 1014.14 1014.39 1014.62 1014.82 1014.98
1016.08 1016.14 1016.21 1016.26 1016.28 1016.26 1016.21 1016.14 1016.07 1016.01 1015.97 1015.95 1015.96 1015.97 1015.99 1016.01 1016.01 1015.99 1015.95 1015.90 1015.81 1015.70 1015.56 1015.39 1015.17 1014.93 1014.65 1014.35 1014.06 1013.78 1013.54 1013.37 1013.26 1013.23 1013.28 1013.39 1013.54 1013.73 1013.94 1014.14 1014.34 1014.52 1014.69
1016.87 1016.88 1016.86 1016.82 1016.74 1016.64 1016.53 1016.42 1016.33 1016.26 1016.22 1016.20 1016.19 1016.20 1016.20 1016.20 1016.18 1016.15 1016.11 1016.05 1015.97 1015.88 1015.76 1015.60 1015.41 1015.19 1014.94 1014.67 1014.40 1014.14 1013.92 1013.74 1013.63 1013.57 1013.58 1013.63 1013.73 1013.85 1013.99 1014.14 1014.29 1014.44 1014.58
1017.46 1017.40 1017.29 1017.15 1016.99 1016.83 1016.68 1016.55 1016.47 1016.41 1016.39 1016.39 1016.40 1016.40 1016.40 1016.38 1016.35 1016.30 1016.25 1016.19 1016.13 1016.05 1015.96 1015.84 1015.70 1015.52 1015.32 1015.10 1014.87 1014.65 1014.46 1014.30 1014.18 1014.11 1014.09 1014.10 1014.14 1014.21 1014.28 1014.37 1014.46 1014.56 1014.67
1017.86 1017.71 1017.52 1017.29 1017.06 1016.86 1016.69 1016.58 1016.51 1016.50 1016.51 1016.54 1016.57 1016.58 1016.58 1016.55 1016.50 1016.44 1016.38 1016.33 1016.28 1016.23 1016.18 1016.11 1016.02 1015.90 1015.76 1015.60 1015.43 1015.26 1015.10 1014.97 1014.87 1014.80 1014.75 1014.73 1014.73 1014.74 1014.76 1014.78 1014.82 1014.86 1014.93
1018.09 1017.86 1017.58 1017.29 1017.01 1016.79 1016.63 1016.54 1016.52 1016.56 1016.62 1016.69 1016.74 1016.76 1016.75 1016.71 1016.65 1016.58 1016.52 1016.47 1016.44 1016.42 1016.41 1016.40 1016.36 1016.31 1016.23 1016.13 1016.02 1015.90 1015.78 1015.68 1015.59 1015.53 1015.48 1015.44 1015.41 1015.37 1015.34 1015.31 1015.29 1015.27 1015.28
1018.17 1017.88 1017.54 1017.21 1016.91 1016.69 1016.56 1016.51 1016.54 1016.63 1016.73 1016.84 1016.91 1016.94 1016.93 1016.88 1016.81 1016.73 1016.67 1016.63 1016.62 1016.63 1016.66 1016.69 1016.71 1016.71 1016.69 1016.64 1016.57 1016.50 1016.42 1016.34 1016.28 1016.22 1016.17 1016.12 1016.07 1016.01 1015.93 1015.86 1015.78 1015.71 1015.66
1018.16 1017.82 1017.46 1017.12 1016.83 1016.63 1016.54 1016.54 1016.62 1016.74 1016.89 1017.01 1017.09 1017.13 1017.11 1017.05 1016.97 1016.89 1016.82 1016.79 1016.80 1016.83 1016.89 1016.96 1017.02 1017.06 1017.07 1017.06 1017.04 1016.99 1016.94 1016.89 1016.85 1016.80 1016.76 1016.71 1016.65 1016.57 1016.47 1016.36 1016.24 1016.12 1016.01
1018.08 1017.74 1017.39 1017.07 1016.82 1016.66 1016.61 1016.65 1016.76 1016.92 1017.08 1017.21 1017.29 1017.32 1017.29 1017.22 1017.13 1017.05 1016.99 1016.96 1016.97 1017.03 1017.10 1017.18 1017.26 1017.32 1017.36 1017.37 1017.36 1017.34 1017.31 1017.28 1017.25 1017.23 1017.20 1017.16 1017.10 1017.01 1016.90 1016.77 1016.62 1016.47 1016.32
1017.99 1017.69 1017.38 1017.10 1016.90 1016.78 1016.77 1016.84 1016.97 1017.13 1017.29 1017.42 1017.49 1017.51 1017.47 1017.39 1017.30 1017.21 1017.15 1017.13 1017.14 1017.19 1017.27 1017.35 1017.43 1017.49 1017.52 1017.54 1017.54 1017.52 1017.51 1017.50 1017.49 1017.49 1017.48 1017.46 1017.42 1017.34 1017.23 1017.10 1016.94 1016.76 1016.59
1017.93 1017.69 1017.44 1017.23 1017.07 1017.00 1017.00 1017.09 1017.22 1017.37 1017.51 1017.61 1017.67 1017.67 1017.62 1017.54 1017.45 1017.37 1017.31 1017.28 1017.29 1017.33 1017.39 1017.45 1017.51 1017.55 1017.57 1017.58 1017.58 1017.57 1017.57 1017.58 1017.60 1017.62 1017.64 1017.65 1017.62 1017.57 1017.48 1017.35 1017.19 1017.01 1016.82
1017.92 1017.76 1017.58 1017.42 1017.31 1017.27 1017.28 1017.35 1017.46 1017.59 1017.70 1017.78 1017.81 1017.80 1017.75 1017.68 1017.59 1017.51 1017.46 1017.42 1017.42 1017.44 1017.47 1017.50 1017.52 1017.53 1017.53 1017.53 1017.52 1017.52 1017.53 1017.57 1017.61 1017.66 1017.71 1017.74 1017.75 1017.71 1017.64 1017.53 1017.38 1017.21 1017.03
1017.98 1017.89 1017.78 1017.67 1017.59 1017.55 1017.56 1017.61 1017.68 1017.77 1017.84 1017.89 1017.91 1017.89 1017.85 1017.78 1017.71 1017.65 1017.60 1017.56 1017.54 1017.53 1017.53 1017.52 1017.50 1017.48 1017.46 1017.43 1017.42 1017.43 1017.46 1017.51 1017.58 1017.66 1017.73 1017.78 1017.81 1017.79 1017.73 1017.64 1017.51 1017.36 1017.19
1018.08 1018.05 1017.99 1017.93 1017.86 1017.82 1017.81 1017.82 1017.85 1017.89 1017.93 1017.95 1017.96 1017.95 1017.92 1017.88 1017.83 1017.78 1017.74 1017.70 1017.66 1017.63 1017.59 1017.54 1017.49 1017.43 1017.39 1017.35 1017.34 1017.35 1017.39 1017.46 1017.55 1017.64 1017.72 1017.79 1017.82 1017.81 1017.75 1017.66 1017.55 1017.41 1017.28
1018.18 1018.21 1018.19 1018.14 1018.09 1018.03 1017.99 1017.96 1017.95 1017.96 1017.97 1017.98 1017.99 1018.00 1017.99 1017.98 1017.96 1017.93 1017.90 1017.86 1017.81 1017.75 1017.68 1017.60 1017.51 1017.44 1017.37 1017.33 1017.32 1017.34 1017.39 1017.46 1017.55 1017.64 1017.71 1017.76 1017.77 1017.74 1017.68 1017.58 1017.47 1017.35 1017.24
1018.25 1018.31 1018.32 1018.29 1018.23 1018.16 1018.09 1018.04 1018.00 1017.98 1017.98 1018.00 1018.02 1018.05 1018.08 1018.10 1018.11 1018.11 1018.09 1018.05 1017.99 1017.91 1017.81 1017.71 1017.60 1017.51 1017.44 1017.40 1017.38 1017.41 1017.46 1017.53 1017.60 1017.66 1017.70 1017.71 1017.68 1017.61 1017.51 1017.39 1017.26 1017.14 1017.04
Thickness
5782 5786 5789 5790 5788 5784 5780 5775 5771 5769 5768 5766 5764 5762 5761 5762 5763 5763 5762 5761 5759 5756 5753 5750 5748 5746 5744 5743 5742 5739 5736 5734 5732 5728 5726 5728 5729 5729 5729 5729 5730 5731 5733
5775 5779 5781 5782 5780 5776 5771 5768 5766 5764 5762 5761 5759 5758 5758 5758 5758 5758 5757 5756 5755 5752 5749 5746 5744 5742 5740 5738 5737 5735 5731 5729 5728 5722 5718 5716 5718 5722 5725 5724 5724 5725 5727
5774 5774 5773 5772 5770 5767 5764 5762 5760 5758 5756 5754 5752 5751 5751 5750 5749 5750 5750 5751 5749 5747 5745 5743 5741 5738 5736 5733 5732 5731 5727 5723 5723 5721 5715 5710 5708 5713 5718 5719 5718 5719 5720
5769 5766 5762 5759 5758 5757 5756 5754 5752 5748 5746 5744 5743 5742 5740 5738 5741 5743 5744 5744 5743 5742 5741 5738 5736 5735 5733 5731 5729 5728 5726 5722 5718 5718 5717 5715 5713 5708 5708 5712 5714 5713 5713
5758 5754 5750 5748 5746 5745 5743 5742 5739 5736 5734 5734 5735 5735 5734 5733 5734 5736 5735 5735 5734 5734 5734 5732 5731 5731 5729 5728 5727 5725 5724 5722 5718 5715 5714 5713 5711 5710 5705 5704 5706 5707 5707
5742 5739 5737 5735 5732 5730 5729 5727 5724 5722 5723 5724 5725 5725 5724 5724 5723 5723 5723 5723 5723 5723 5724 5724 5723 5724 5724 5723 5723 5722 5721 5720 5718 5716 5713 5711 5707 5705 5704 5701 5700 5699 5700
5726 5724 5722 5719 5715 5714 5713 5712 5710 5709 5710 5712 5713 5713 5713 5713 5712 5712 5712 5712 5712 5712 5713 5714 5715 5716 5716 5717 5718 5718 5717 5717 5716 5714 5712 5711 5709 5707 5704 5700 5696 5694 5695
5709 5709 5709 5708 5702 5699 5698 5699 5698 5697 5698 5699 5699 5701 5702 5701 5701 5701 5701 5701 5701 5702 5704 5705 5707 5708 5709 5711 5712 5712 5713 5714 5713 5712 5710 5708 5707 5706 5705 5700 5695 5689 5688
5690 5691 5694 5696 5692 5689 5687 5687 5687 5687 5687 5686 5686 5687 5688 5689 5689 5690 5690 5690 5691 5692 5694 5695 5698 5700 5701 5703 5705 5706 5707 5709 5710 5709 5708 5706 5705 5704 5703 5701 5697 5690 5684
5673 5676 5679 5681 5680 5679 5677 5677 5677 5676 5676 5675 5675 5676 5677 5678 5679 5679 5679 5679 5680 5681 5683 5685 5688 5690 5692 5694 5696 5699 5702 5704 5705 5705 5704 5703 5702 5701 5700 5698 5696 5693 5688
5653 5657 5663 5667 5668 5668 5669 5668 5667 5667 5666 5665 5665 5665 5666 5668 5669 5669 5669 5669 5670 5671 5672 5674 5676 5678 5680 5683 5686 5690 5694 5698 5700 5700 5699 5699 5699 5696 5695 5695 5693 5691 5689
5639 5643 5648 5654 5656 5657 5658 5658 5658 5657 5656 5656 5656 5655 5656 5658 5659 5659 5660 5660 5660 5660 5661 5662 5664 5666 5669 5672 5675 5680 5685 5689 5692 5694 5694 5694 5694 5692 5691 5690 5689 5688 5688
5631 5634 5638 5641 5643 5645 5646 5646 5647 5646 5646 5646 5645 5645 5646 5648 5649 5650 5651 5651 5650 5649 5650 5651 5652 5655 5658 5661 5665 5670 5674 5678 5681 5684 5685 5686 5686 5685 5685 5684 5684 5684 5685
5624 5625 5626 5628 5630 5632 5634 5634 5634 5635 5635 5635 5634 5634 5635 5637 5639 5641 5643 5642 5641 5639 5639 5640 5642 5644 5648 5652 5655 5659 5662 5665 5668 5671 5673 5675 5676 5676 5677 5677 5677 5678 5678
5618 5618 5617 5617 5619 5621 5622 5623 5623 5623 5623 5622 5622 5622 5624 5627 5629 5631 5632 5632 5631 5630 5629 5630 5632 5635 5639 5642 5645 5647 5650 5653 5655 5657 5660 5663 5665 5667 5669 5669 5670 5671 5671
5608 5609 5610 5609 5609 5610 5611 5612 5612 5612 5611 5610 5611 5613 5614 5616 5618 5620 5622 5622 5621 5621 5621 5621 5623 5626 5629 5632 5635 5637 5639 5641 5643 5645 5647 5650 5653 5657 5659 5660 5662 5664 5665
5594 5595 5597 5598 5598 5599 5600 5600 5600 5601 5600 5600 5601 5603 5605 5606 5607 5610 5612 5612 5613 5613 5613 5614 5616 5617 5620 5623 5625 5627 5628 5629 5631 5632 5635 5639 5641 5645 5648 5650 5651 5653 5656
5580 5581 5583 5585 5586 5587 5587 5587 5587 5587 5587 5588 5590 5592 5594 5595 5596 5598 5601 5603 5604 5605 5605 5607 5609 5610 5612 5615 5617 5618 5618 5619 5620 5622 5624 5627 5629 5634 5637 5639 5640 5642 5645
5569 5570 5572 5574 5575 5576 5577 5576 5575 5575 5576 5576 5578 5581 5583 5585 5586 5588 5590 5592 5594 5595 5597 5598 5600 5601 5603 5606 5608 5609 5609 5609 5610 5612 5615 5617 5619 5622 5625 5627 5628 5631 5634
5562 5562 5564 5565 5565 5566 5567 5566 5565 5565 5565 5567 5569 5571 5573 5574 5577 5579 5581 5584 5585 5587 5588 5589 5590 5592 5594 5597 5599 5600 5600 5600 5601 5603 5605 5608 5609 5611 5614 5615 5617 5619 5623
5557 5557 5558 5558 5558 5559 5560 5558 5557 5557 5557 5559 5560 5562 5564 5566 5569 5571 5573 5575 5577 5578 5579 5580 5581 5583 5585 5587 5589 5591 5591 5591 5591 5592 5594 5596 5600 5601 5604 5606 5607 5609 5613
5552 5552 5551 5552 5553 5554 5554 5553 5552 5551 5552 5553 5554 5555 5557 5559 5561 5562 5564 5566 5568 5569 5568 5568 5570 5573 5575 5576 5578 5580 5581 5582 5580 5580 5582 5585 5590 5592 5595 5597 5600 5603 5605
5547 5547 5546 5546 5546 5548 5549 5548 5547 5546 5547 5547 5548 5549 5550 5551 5552 5553 5554 5555 5557 5557 5558 5558 5559 5562 5565 5566 5567 5568 5569 5571 5570 5570 5573 5576 5580 5583 5586 5589 5592 5594 5595
5541 5540 5539 5538 5538 5540 5541 5541 5541 5541 5541 5541 5541 5542 5542 5542 5543 5544 5545 5545 5545 5547 5548 5549 5550 5552 5554 5555 5556 5556 5557 5559 5560 5561 5564 5567 5570 5572 5576 5579 5582 5584 5585
5535 5533 5532 5531 5531 5531 5531 5532 5532 5534 5534 5534 5534 5533 5533 5533 5533 5533 5534 5535 5534 5535 5537 5539 5540 5540 5543 5547 5549 5548 5548 5549 5550 5552 5554 5555 5556 5559 5562 5566 5570 5573 5576
5529 5527 5526 5525 5524 5523 5522 5523 5523 5524 5524 5525 5525 5524 5524 5524 5523 5524 5524 5525 5526 5528 5529 5530 5531 5531 5533 5537 5539 5540 5540 5541 5541 5542 5542 5542 5543 5545 5548 5551 5555 5560 5564